SCOUT A DEB, 3214

Orbit data source: Space-Track

SCOUT A DEB, 3214 is space debris in LEO originally from a launch on Sat, 02 Mar 1968 UTC launched from the Air Force Western Test Range (AFWTR). Debris objects in space refer to the collection of defunct objects orbiting the Earth. Examples of debris include non-operational satellites, rocket bodies, and fragments generated from explosions, collisions, or faulty payload assembly.

Loading next visibility...
Identifier
3214, 1968-012D
Orbit
LEO
Last TLE update
1 day ago
Origin
Manufacturer
Unknown
Mission
Spacecraft
Bus & Motor
Unknown
Mass
Unknown
Launch date (UTC)
1968-03-02 (57 years ago)
Launch vehicle
Unknown
Launch site
Air Force Western Test Range (AFWTR)
Object type
Payload
Rocket body
Debris
Shape & HBR
Unknown
Radar Cross Section
Small (<0.1 m²)

Expand to show TLE details & history

TLE from 1 day ago
0 SCOUT A DEB
1 03214U 68012D   25181.26506843  .00000164  00000-0  30294-3 0  9990
2 03214  89.8344 109.6010 0186278 158.4255 333.2289 13.29168542537788
Epoch: 2025-06-30T06:21Z
TLE epoch observation values (Epoch: 2025-06-30T06:21:41.912Z)
Latitude
49.42143°
Longitude
-84.59335°
Altitude
1,033.096 km
Speed
7.4 km/s
True Right ascension
19h 17m 38s
True Declination
49° 15' 28"
Sunlit
Object was in daylight at epoch
Visualization orbit readout
Latitude
74.50429°
Longitude
-85.01334°
Altitude
1,070.608 km
Speed
7.368 km/s
Apparent Right ascension
10h 00m 55s
Apparent Declination
43° 47' 18"
Sunlit
Object is in daylight
Visualization observer readout
Local Sidereal Time
20:58:37
Azimuth
348.777° N
Elevation
-5.125°
Doppler factor
1
Orbital elements
Apogee altitude
1,287.156 km
Perigee altitude
1,006.804 km
Semi-major axis
7,525.117 km
Eccentricity
0.01863
Inclination
89.8344°
RAAN
109.601°
Arg. of periapsis
158.4255°
True anomaly
Unknown
Mean anomaly
333.2289°
Eccentric anomaly
Unknown
Mean motion
3.32486 °/min
Orbital period
108.28 mins
BSTAR
0.00030294
Loading maneuver chart data...
Loading SW <> Apogee altitude chart data...
Loading historical data...
Loading historical data...
Loading historical data...
Loading historical data...
Loading historical data...
Loading historical data...
Loading historical data...

SCOUT A DEB Visibility forecast

Observer location: undefined°, undefined°

Span
Click to sort rows by Start time (UTC) header in descending order
Start Az.
Max El. time (UTC)
Max El. Az.
Max El.
End time (UTC)
End Az.
7 mins2025-07-01 18:00:20.912Z103.359° ESE2025-07-01 18:03:20.912Z75.435° E18.232°2025-07-01 18:07:20.912Z37.318° NE
12 mins2025-07-01 19:45:20.912Z184.907° SSW2025-07-01 19:51:20.912Z290.016° WNW43.934°2025-07-01 19:57:20.912Z353.785° N
11 mins2025-07-02 07:06:20.912Z13.44° NNE2025-07-02 07:11:20.912Z93.485° ESE40.388°2025-07-02 07:17:20.912Z167.775° S
6 mins2025-07-02 08:56:20.912Z315.369° NNW2025-07-02 08:58:20.912Z292.69° NW18.742°2025-07-02 09:02:20.912Z248.611° W
|